Weather History for KLKR - May, 2013

Change the Weather History Date:

Sunday, May 26, 2013

  Actual Average (KCLT) Record (KCLT)
Temperature  
Mean Temperature 64 °F 70 °F  
Max Temperature 77 °F 81 °F 96 °F (1926)
Min Temperature 50 °F 59 °F 45 °F (1979)
Degree Days  
Heating Degree Days 2 1  
Month to date heating degree days 50  
Since 1 July heating degree days 3382  
Cooling Degree Days 0 6  
Month to date cooling degree days 93  
Year to date cooling degree days 130  
Growing Degree Days 14 (Base 50)    
Moisture  
Dew Point 50 °F    
Average Humidity 70    
Maximum Humidity 100    
Minimum Humidity 32    
Precipitation  
Precipitation 0.00 in 0.11 in 3.03 in (1890)
Month to date precipitation 2.60  
Year to date precipitation 16.38  
Snow  
Snow 0.00 in 0.00 in 0.00 in ()
Month to date snowfall 0.0  
Since 1 July snowfall 4.3  
Snow Depth -    
Sea Level Pressure  
Sea Level Pressure 30.23 in    
Wind  
Wind Speed 1 mph (NNW)    
Max Wind Speed 10 mph    
Max Gust Speed -    
Visibility 10 miles    
Events Rain    
T = Trace of Precipitation, MM = Missing Value Source: NWS Daily Summary

Daily Weather History Graph

Daily Weather History Graph

Search for Another Location

Airport or City:

Trip Planner

Search our weather history database for the weather conditions in past years. The results will help you decide how hot, cold, wet, or windy it might be!

Date:

Astronomy

May. 26, 2013 Rise Set
Actual Time 6:13 AM EDT 8:27 PM EDT
Civil Twilight 5:44 AM EDT 8:56 PM EDT
Nautical Twilight 5:09 AM EDT 9:31 PM EDT
Astronomical Twilight 4:31 AM EDT 10:09 PM EDT
Moon 10:15 PM EDT (5/26) 7:40 AM EDT (5/26)
Length of Visible Light 15h 11m
Length of Day
14h 14m
Waning Gibbous, 97% of the Moon is Illuminated
May 26
Waning Gibbous
May 31
Last Quarter
Jun 8
New
Jun 16
First Quarter
Jun 23
Full

Hourly Weather History & Observations

Time (EDT) Temp. Dew Point Humidity Pressure Visibility Wind Dir Wind Speed Gust Speed Precip Events Conditions
12:15 AM 51.8 °F 51.8 °F 100% 30.18 in 10.0 mi Calm Calm - N/A   Clear
12:35 AM 51.8 °F 51.8 °F 100% 30.19 in 9.0 mi Calm Calm - N/A   Clear
12:55 AM 51.8 °F 51.8 °F 100% 30.19 in 9.0 mi Calm Calm - N/A   Clear
1:15 AM 51.8 °F 51.8 °F 100% 30.20 in 9.0 mi Calm Calm - N/A   Clear
1:35 AM 50.0 °F 50.0 °F 100% 30.20 in 10.0 mi Calm Calm - N/A   Partly Cloudy
1:55 AM 50.0 °F 50.0 °F 100% 30.20 in 10.0 mi Calm Calm - N/A   Partly Cloudy
2:15 AM 50.0 °F 50.0 °F 100% 30.20 in 10.0 mi Calm Calm - N/A   Clear
2:35 AM 51.8 °F 51.8 °F 100% 30.20 in 9.0 mi Calm Calm - N/A   Partly Cloudy
2:55 AM 53.6 °F 53.6 °F 100% 30.20 in 10.0 mi Calm Calm - N/A   Mostly Cloudy
3:15 AM 55.4 °F 55.4 °F 100% 30.20 in 10.0 mi Calm Calm - N/A   Mostly Cloudy
3:35 AM 55.4 °F 55.4 °F 100% 30.19 in 10.0 mi Calm Calm - N/A   Mostly Cloudy
3:55 AM 55.4 °F 53.6 °F 94% 30.20 in 10.0 mi Calm Calm - N/A   Scattered Clouds
4:15 AM 53.6 °F 50.0 °F 88% 30.20 in 10.0 mi Calm Calm - N/A   Mostly Cloudy
4:35 AM 53.6 °F 53.6 °F 100% 30.20 in 10.0 mi Calm Calm - N/A   Scattered Clouds
4:55 AM 53.6 °F 51.8 °F 94% 30.21 in 10.0 mi Calm Calm - N/A   Clear
5:15 AM 53.6 °F 51.8 °F 94% 30.21 in 10.0 mi Calm Calm - N/A   Clear
5:35 AM 53.6 °F 51.8 °F 94% 30.22 in 10.0 mi Calm Calm - N/A   Clear
5:55 AM 53.6 °F 51.8 °F 94% 30.23 in 10.0 mi Calm Calm - N/A   Clear
6:15 AM 53.6 °F 51.8 °F 94% 30.24 in 10.0 mi Calm Calm - N/A   Partly Cloudy
6:35 AM 53.6 °F 51.8 °F 94% 30.25 in 9.0 mi Calm Calm - N/A   Scattered Clouds
6:55 AM 53.6 °F 53.6 °F 100% 30.27 in 9.0 mi Calm Calm - N/A   Partly Cloudy
7:15 AM 53.6 °F 53.6 °F 100% 30.27 in 10.0 mi Calm Calm - N/A   Partly Cloudy
7:35 AM 53.6 °F 53.6 °F 100% 30.27 in 10.0 mi Calm Calm - N/A   Clear
7:55 AM 55.4 °F 53.6 °F 94% 30.28 in 10.0 mi Calm Calm - N/A   Clear
8:15 AM 57.2 °F 51.8 °F 82% 30.29 in 9.0 mi NE 3.5 mph - N/A   Clear
8:35 AM 57.2 °F 48.2 °F 72% 30.29 in 10.0 mi Calm Calm - N/A   Clear
8:55 AM 57.2 °F 50.0 °F 77% 30.29 in 10.0 mi NE 4.6 mph - N/A   Clear
9:15 AM 60.8 °F 48.2 °F 63% 30.30 in 10.0 mi East 3.5 mph - N/A   Partly Cloudy
9:35 AM 62.6 °F 44.6 °F 52% 30.29 in 10.0 mi NE 5.8 mph - N/A   Partly Cloudy
9:55 AM 64.4 °F 46.4 °F 52% 30.29 in 7.0 mi ESE 3.5 mph - N/A   Clear
10:15 AM 62.6 °F 44.6 °F 52% 30.30 in 10.0 mi NE 4.6 mph - N/A   Partly Cloudy
10:35 AM 64.4 °F 44.6 °F 49% 30.30 in 10.0 mi NNE 10.4 mph - N/A   Clear
10:55 AM 64.4 °F 44.6 °F 49% 30.29 in 10.0 mi NE 5.8 mph - N/A   Clear
11:15 AM 66.2 °F 44.6 °F 46% 30.29 in 10.0 mi ENE 3.5 mph - N/A   Clear
11:35 AM 68.0 °F 44.6 °F 43% 30.29 in 8.0 mi NE 3.5 mph - N/A   Partly Cloudy
11:55 AM 68.0 °F 44.6 °F 43% 30.29 in 9.0 mi East 4.6 mph - N/A   Partly Cloudy
12:15 PM 68.0 °F 44.6 °F 43% 30.29 in 10.0 mi North 4.6 mph - N/A   Clear
12:35 PM 69.8 °F 41.0 °F 35% 30.27 in 9.0 mi North 4.6 mph - N/A   Partly Cloudy
12:55 PM 71.6 °F 41.0 °F 33% 30.28 in 9.0 mi NW 4.6 mph - N/A   Scattered Clouds
1:15 PM 71.6 °F 42.8 °F 35% 30.27 in 10.0 mi Calm Calm - N/A   Scattered Clouds
1:35 PM 73.4 °F 46.4 °F 38% 30.27 in 10.0 mi NE 4.6 mph - N/A   Mostly Cloudy
1:55 PM 71.6 °F 44.6 °F 38% 30.26 in 8.0 mi North 3.5 mph - N/A   Mostly Cloudy
2:15 PM 73.4 °F 42.8 °F 33% 30.26 in 9.0 mi NNW 5.8 mph - N/A   Scattered Clouds
2:35 PM 73.4 °F 44.6 °F 36% 30.24 in 9.0 mi Calm Calm - N/A   Clear
2:55 PM 73.4 °F 44.6 °F 36% 30.24 in 7.0 mi West 4.6 mph - N/A   Clear
3:15 PM 73.4 °F 42.8 °F 33% 30.23 in 10.0 mi West 4.6 mph - N/A   Clear
3:35 PM 75.2 °F 44.6 °F 34% 30.22 in 10.0 mi Calm Calm - N/A   Clear
3:55 PM 75.2 °F 44.6 °F 34% 30.21 in 8.0 mi SW 5.8 mph - N/A   Clear
4:15 PM 75.2 °F 44.6 °F 34% 30.21 in 10.0 mi WNW 4.6 mph - N/A   Clear
4:35 PM 75.2 °F 44.6 °F 34% 30.20 in 9.0 mi WNW 6.9 mph - N/A   Clear
4:55 PM 77.0 °F 44.6 °F 32% 30.20 in 7.0 mi WNW 6.9 mph - N/A   Clear
5:15 PM 77.0 °F 44.6 °F 32% 30.20 in 9.0 mi West 5.8 mph - N/A   Clear
5:35 PM 77.0 °F 44.6 °F 32% 30.20 in 10.0 mi West 5.8 mph - N/A   Clear
5:55 PM 75.2 °F 44.6 °F 34% 30.20 in 10.0 mi West 3.5 mph - N/A   Clear
6:15 PM 77.0 °F 44.6 °F 32% 30.20 in 10.0 mi West 3.5 mph - N/A   Clear
6:35 PM 75.2 °F 46.4 °F 36% 30.19 in 10.0 mi West 3.5 mph - N/A   Clear
6:55 PM 75.2 °F 48.2 °F 38% 30.19 in 10.0 mi Calm Calm - N/A   Clear
7:15 PM 73.4 °F 50.0 °F 44% 30.19 in 10.0 mi Calm Calm - N/A   Clear
7:35 PM 71.6 °F 53.6 °F 53% 30.19 in 10.0 mi Calm Calm - N/A   Clear
7:55 PM 68.0 °F 53.6 °F 60% 30.19 in 10.0 mi Calm Calm - N/A   Clear
8:15 PM 64.4 °F 59.0 °F 83% 30.20 in 5.0 mi Calm Calm - N/A   Haze
8:35 PM 62.6 °F 57.2 °F 82% 30.20 in 10.0 mi Calm Calm - N/A   Clear
8:55 PM 59.0 °F 59.0 °F 100% 30.20 in 10.0 mi Calm Calm - N/A Rain Light Rain
9:15 PM 59.0 °F 59.0 °F 100% 30.21 in 10.0 mi Calm Calm - N/A Rain Light Rain
9:35 PM 57.2 °F 57.2 °F 100% 30.21 in 10.0 mi Calm Calm - N/A Rain Light Rain
9:55 PM 57.2 °F 57.2 °F 100% 30.21 in 10.0 mi Calm Calm - N/A Rain Light Rain
10:15 PM 57.2 °F 57.2 °F 100% 30.22 in 10.0 mi Calm Calm - N/A Rain Light Rain
10:35 PM 55.4 °F 55.4 °F 100% 30.23 in 10.0 mi Calm Calm - N/A Rain Light Rain
10:55 PM 55.4 °F 55.4 °F 100% 30.23 in 9.0 mi Calm Calm - N/A Rain Light Rain
11:15 PM 55.4 °F 55.4 °F 100% 30.23 in 10.0 mi Calm Calm - N/A Rain Light Rain
11:35 PM 53.6 °F 53.6 °F 100% 30.23 in 10.0 mi Calm Calm - N/A Rain Light Rain
11:55 PM 53.6 °F 53.6 °F 100% 30.23 in 10.0 mi Calm Calm - N/A Rain Light Rain